Location: Copeville
(33.0796°N, 96.4155°W)
Time: 22:48:34
(UTC+00:00)

ISS - Pass Details

Date: 26 June 2024
Orbit: 409 x 423 km, 51.6° (Epoch: 23 July)

Event Time Altitude Azimuth Distance (km) Brightness Sun altitude
Exits shadow 08:43:36 28° 2° (N) 815 -1.8 -25.1°
Drops below altitude 10° 08:45:37 10° 30° (NNE) 1,486 0.1 -24.8°
Sets 08:47:50 0° 39° (NE) 2,355 1.5 -24.6°
